FW9191 Weather Reports


time (UTC)temp
C
wind
direction
speed
KPH
gust
KPH
rain 1hr
cm
rain 24hr
cm
rain mn
cm
humidity
%
barometer
mb
20260507025927 15 163 1.6 1.6 0.00 0.00 0.00 10 1007.0
20260507025424 15 167 0.0 0.0 0.00 0.00 0.00 10 1007.0
20260507024922 15 118 0.0 0.0 0.00 0.00 0.00 10 1007.1
20260507024419 15 138 3.2 4.8 0.00 0.00 0.00 10 1007.1
20260507023914 15 178 1.6 1.6 0.00 0.00 0.00 10 1007.1
20260507023412 15 217 3.2 4.8 0.00 0.00 0.00 10 1007.2
20260507022909 16 167 3.2 3.2 0.00 0.00 0.00 10 1007.1
20260507022405 16 151 0.0 0.0 0.00 0.00 0.00 10 1007.1
20260507021901 16 90 4.8 4.8 0.00 0.00 0.00 10 1006.8
20260507021356 16 79 4.8 4.8 0.00 0.00 0.00 10 1006.9
20260507020855 16 115 4.8 4.8 0.00 0.00 0.00 10 1006.8
20260507020351 16 50 4.8 8.0 0.00 0.00 0.00 10 1006.6
20260507015848 17 67 6.4 9.7 0.00 0.00 0.00 10 1006.6
20260507015346 17 69 3.2 4.8 0.00 0.00 0.00 10 1006.4
20260507014843 17 69 4.8 8.0 0.00 0.00 0.00 10 1006.4
20260507014339 17 88 4.8 8.0 0.00 0.00 0.00 10 1006.4
20260507013836 17 34 6.4 8.0 0.00 0.00 0.00 10 1006.6
20260507013333 17 95 11.3 12.9 0.00 0.00 0.00 10 1006.4
20260507012831 18 185 1.6 1.6 0.00 0.00 0.00 10 1006.3
20260507012326 18 119 0.0 1.6 0.00 0.00 0.00 10 1006.3
20260507011823 18 155 4.8 4.8 0.00 0.00 0.00 10 1006.3
20260507011320 18 92 4.8 4.8 0.00 0.00 0.00 10 1006.3
20260507010820 18 170 3.2 3.2 0.00 0.00 0.00 10 1006.2
20260507010315 18 141 0.0 1.6 0.00 0.00 0.00 10 1006.2
20260507005813 18 287 6.4 8.0 0.00 0.00 0.00 10 1006.2
20260507005310 18 54 8.0 11.3 0.00 0.00 0.00 10 1006.2
20260507004807 18 33 8.0 11.3 0.00 0.00 0.00 10 1006.1
20260507004304 18 112 4.8 8.0 0.00 0.00 0.00 10 1006.1
20260507003800 18 94 4.8 4.8 0.00 0.00 0.00 10 1006.2
20260507003256 18 68 8.0 11.3 0.00 0.00 0.00 10 1006.0
20260507002752 18 313 6.4 8.0 0.00 0.00 0.00 10 1006.1
20260507002248 18 23 8.0 9.7 0.00 0.00 0.00 10 1006.1
20260507001745 18 205 3.2 4.8 0.00 0.00 0.00 10 1006.0
20260507001242 18 64 6.4 9.7 0.00 0.00 0.00 10 1005.9
20260507000738 18 69 3.2 3.2 0.00 0.00 0.00 10 1005.9
20260507000234 18 180 4.8 4.8 0.00 0.00 0.00 10 1005.7
20260506235731 18 33 12.9 16.1 0.00 0.00 0.00 10 1005.7
20260506235227 18 30 11.3 12.9 0.00 0.00 0.00 10 1005.5
20260506234724 19 3 17.7 20.9 0.00 0.00 0.00 10 1005.5
20260506234221 19 42 9.7 11.3 0.00 0.00 0.00 10 1005.2
20260506233719 20 77 9.7 12.9 0.00 0.00 0.00 10 1005.3
20260506233215 20 52 9.7 11.3 0.00 0.00 0.00 10 1005.1
20260506232711 20 80 6.4 8.0 0.00 0.00 0.00 10 1005.4
20260506232206 20 179 3.2 3.2 0.00 0.00 0.00 10 1005.4
20260506231704 20 171 3.2 3.2 0.00 0.00 0.00 10 1005.2
20260506231203 20 183 1.6 1.6 0.00 0.00 0.00 10 1005.3
20260506230658 20 182 4.8 4.8 0.00 0.00 0.00 10 1005.4
20260506230155 20 34 8.0 9.7 0.00 0.00 0.00 10 1005.2
20260506225652 20 67 6.4 9.7 0.00 0.00 0.00 10 1005.1
20260506225149 20 101 9.7 12.9 0.00 0.00 0.00 10 1005.2
20260506224645 20 73 4.8 4.8 0.00 0.00 0.00 10 1005.3
20260506224142 20 46 4.8 8.0 0.00 0.00 0.00 10 1005.3
20260506223639 20 46 6.4 9.7 0.00 0.00 0.00 10 1005.4
20260506223134 20 154 4.8 8.0 0.00 0.00 0.00 10 1005.3
20260506222632 20 91 11.3 14.5 0.00 0.00 0.00 10 1005.3
20260506222128 20 144 9.7 11.3 0.00 0.00 0.00 10 1005.3
20260506221626 20 58 11.3 12.9 0.00 0.00 0.00 10 1005.4
20260506221123 20 76 4.8 8.0 0.00 0.00 0.00 10 1005.3
20260506220620 20 98 17.7 17.7 0.00 0.00 0.00 10 1005.3
20260506220115 20 111 14.5 16.1 0.00 0.00 0.00 10 1005.5
20260506215612 21 110 3.2 4.8 0.00 0.00 0.00 10 1005.9
20260506215107 21 26 6.4 8.0 0.00 0.00 0.00 10 1005.9
20260506214604 21 257 9.7 12.9 0.00 0.00 0.00 10 1005.8
20260506214102 22 231 4.8 8.0 0.00 0.00 0.00 10 1005.9
20260506213600 21 191 4.8 8.0 0.00 0.00 0.00 10 1005.4
20260506213057 21 272 22.5 29.0 0.00 0.00 0.00 10 1005.7
20260506212554 21 218 14.5 16.1 0.00 0.00 0.00 10 1005.5
20260506212048 21 214 17.7 20.9 0.00 0.00 0.00 10 1005.7
20260506211545 22 195 12.9 17.7 0.00 0.00 0.00 10 1005.7
20260506211042 22 287 16.1 17.7 0.00 0.00 0.00 10 1005.7
20260506210538 21 179 1.6 3.2 0.00 0.00 0.00 10 1005.8
20260506210035 21 286 14.5 16.1 0.00 0.00 0.00 10 1005.8
20260506205532 21 172 9.7 11.3 0.00 0.00 0.00 10 1005.9
20260506205027 21 195 3.2 3.2 0.00 0.00 0.00 10 1006.1
20260506204525 21 165 9.7 12.9 0.00 0.00 0.00 10 1006.0
20260506204022 21 182 3.2 4.8 0.00 0.00 0.00 10 1006.0
20260506203520 21 265 12.9 14.5 0.00 0.00 0.00 10 1005.9
20260506203016 21 230 14.5 20.9 0.00 0.00 0.00 10 1006.1
20260506202514 21 178 4.8 8.0 0.00 0.00 0.00 10 1006.1
20260506202010 21 194 8.0 11.3 0.00 0.00 0.00 10 1006.1
20260506201508 20 246 11.3 12.9 0.00 0.00 0.00 10 1006.0
20260506201004 20 264 6.4 8.0 0.00 0.00 0.00 10 1006.2
20260506200501 21 232 9.7 11.3 0.00 0.00 0.00 10 1006.2
20260506195957 21 229 9.7 11.3 0.00 0.00 0.00 10 1006.3
20260506195455 21 226 8.0 8.0 0.00 0.00 0.00 10 1006.2
20260506194950 20 210 6.4 8.0 0.00 0.00 0.00 10 1006.6
20260506194448 20 290 9.7 14.5 0.00 0.00 0.00 10 1006.7
20260506193944 20 285 14.5 16.1 0.00 0.00 0.00 10 1006.7
20260506193442 21 195 14.5 14.5 0.00 0.00 0.00 10 1006.2
20260506192938 21 189 4.8 4.8 0.00 0.00 0.00 10 1006.4
20260506192436 20 153 4.8 4.8 0.00 0.00 0.00 10 1006.4
20260506191932 20 159 0.0 0.0 0.00 0.00 0.00 10 1006.7
20260506191429 20 208 3.2 4.8 0.00 0.00 0.00 10 1006.7
20260506190925 20 237 6.4 8.0 0.00 0.00 0.00 10 1006.9
20260506190422 19 102 6.4 8.0 0.00 0.00 0.00 10 1006.8
20260506185919 19 82 9.7 12.9 0.00 0.00 0.00 10 1006.9
20260506185416 19 179 0.0 1.6 0.00 0.00 0.00 10 1006.9
20260506184913 20 200 12.9 16.1 0.00 0.00 0.00 10 1007.2
20260506184410 20 215 22.5 25.7 0.00 0.00 0.00 10 1007.3
20260506183907 17 196 6.4 8.0 0.00 0.00 0.00 10 1007.5
20260506183403 18 159 11.3 12.9 0.00 0.00 0.00 10 1007.5
20260506182900 18 191 11.3 14.5 0.00 0.00 0.00 10 1007.3
20260506182357 18 211 9.7 16.1 0.00 0.00 0.00 10 1007.5
20260506181854 17 188 9.7 16.1 0.00 0.00 0.00 10 1007.1
20260506181352 17 195 11.3 14.5 0.00 0.00 0.00 10 1007.6
20260506180848 17 206 11.3 16.1 0.00 0.00 0.00 10 1007.6
20260506180339 17 201 14.5 24.1 0.00 0.00 0.00 10 1007.7
20260506175835 17 179 17.7 24.1 0.00 0.00 0.00 10 1007.7
20260506175332 16 174 14.5 20.9 0.00 0.00 0.00 10 1007.8
20260506174829 16 196 20.9 25.7 0.00 0.00 0.00 10 1007.6
20260506174327 17 186 16.1 22.5 0.00 0.00 0.00 10 1008.1
20260506173824 17 178 17.7 20.9 0.00 0.00 0.00 10 1008.1
20260506173321 17 213 16.1 17.7 0.00 0.00 0.00 10 1008.1
20260506172818 17 197 14.5 16.1 0.00 0.00 0.00 10 1008.2
20260506172315 17 222 19.3 25.7 0.00 0.00 0.00 10 1008.1
20260506171812 16 210 16.1 22.5 0.00 0.00 0.00 10 1008.5
20260506171309 16 208 19.3 22.5 0.00 0.00 0.00 10 1008.3
20260506170807 16 203 20.9 25.7 0.00 0.00 0.00 10 1008.6
20260506170303 16 211 22.5 32.2 0.00 0.00 0.00 10 1008.6
20260506165802 16 214 24.1 32.2 0.00 0.00 0.00 10 1008.7
20260506165258 16 177 19.3 22.5 0.00 0.00 0.00 10 1008.8
20260506164755 15 192 14.5 17.7 0.00 0.00 0.00 10 1009.0
20260506164252 15 222 20.9 25.7 0.00 0.00 0.00 10 1009.0
20260506163749 15 149 19.3 27.4 0.00 0.00 0.00 10 1009.1
20260506163244 14 217 20.9 25.7 0.00 0.00 0.00 10 1009.0
20260506162740 14 222 20.9 24.1 0.00 0.00 0.00 10 1009.4
20260506162238 14 215 14.5 16.1 0.00 0.00 0.00 10 1009.1
20260506161735 14 223 20.9 24.1 0.00 0.00 0.00 10 1009.2
20260506161232 13 297 14.5 17.7 0.00 0.00 0.00 10 1009.4
20260506160730 13 245 20.9 24.1 0.00 0.00 0.00 10 1009.5
20260506160226 12 225 17.7 25.7 0.00 0.00 0.00 10 1009.5
20260506155724 12 202 14.5 17.7 0.00 0.00 0.00 10 1009.6
20260506155221 12 220 16.1 24.1 0.00 0.00 0.00 10 1009.5
20260506153329 11 201 17.7 20.9 0.00 0.00 0.00 10 1009.8
20260506152826 11 241 12.9 17.7 0.00 0.00 0.00 10 1010.0
20260506152323 11 154 29.0 33.8 0.00 0.00 0.00 10 1009.8
20260506151822 10 199 19.3 24.1 0.00 0.00 0.00 10 1010.0
20260506151318 10 218 11.3 14.5 0.00 0.00 0.00 10 1010.0
20260506150815 10 238 17.7 24.1 0.00 0.00 0.00 10 1010.1
20260506150312 10 211 30.6 35.4 0.00 0.00 0.00 10 1010.5
20260506145809 10 218 20.9 32.2 0.00 0.00 0.00 10 1010.3
20260506145306 9 214 17.7 20.9 0.00 0.00 0.00 10 1010.3
20260506144803 8 242 20.9 25.7 0.00 0.00 0.00 10 1010.6
20260506144259 8 241 8.0 16.1 0.00 0.00 0.00 10 1010.7
20260506143757 6 202 4.8 9.7 0.00 0.00 0.00 10 1010.8
20260506143254 5 184 1.6 3.2 0.00 0.00 0.00 10 1010.9
20260506142753 4 226 6.4 8.0 0.00 0.00 0.00 10 1010.6
20260506142250 3 192 3.2 3.2 0.00 0.00 0.00 10 1010.7
20260506141748 3 157 6.4 8.0 0.00 0.00 0.00 10 1010.9
20260506141247 2 232 6.4 9.7 0.00 0.00 0.00 10 1011.0
20260506140744 2 198 4.8 4.8 0.00 0.00 0.00 10 1011.2
20260506140240 1 224 4.8 4.8 0.00 0.00 0.00 10 1011.3
20260506135737 1 258 8.0 9.7 0.00 0.00 0.00 10 1011.2
20260506135233 0 289 6.4 8.0 0.00 0.00 0.00 10 1011.3
20260506134731 0 276 8.0 11.3 0.00 0.00 0.00 10 1011.5
20260506134227 0 175 4.8 8.0 0.00 0.00 0.00 10 1011.5
20260506133725 0 214 4.8 4.8 0.00 0.00 0.00 10 1011.5
20260506133221 -1 348 6.4 8.0 0.00 0.00 0.00 10 1011.5
20260506132718 -1 208 8.0 9.7 0.00 0.00 0.00 10 1011.7
20260506132215 -1 159 4.8 4.8 0.00 0.00 0.00 10 1011.4
20260506131713 -1 198 6.4 8.0 0.00 0.00 0.00 10 1011.4
20260506131208 -2 223 4.8 4.8 0.00 0.00 0.00 10 1011.6
20260506130705 -2 181 3.2 3.2 0.00 0.00 0.00 10 1011.4
20260506130202 -2 180 6.4 8.0 0.00 0.00 0.00 10 1011.5
20260506125701 -2 319 6.4 11.3 0.00 0.00 0.00 10 1011.5
20260506125158 -2 180 3.2 4.8 0.00 0.00 0.00 10 1011.3
20260506124656 -2 269 6.4 9.7 0.00 0.00 0.00 10 1011.4
20260506124154 -2 253 9.7 11.3 0.00 0.00 0.00 10 1011.6
20260506123651 -3 189 6.4 8.0 0.00 0.00 0.00 10 1011.6
20260506123150 -3 275 4.8 4.8 0.00 0.00 0.00 10 1011.5
20260506122646 -3 258 4.8 8.0 0.00 0.00 0.00 10 1011.4
20260506122144 -3 170 4.8 4.8 0.00 0.00 0.00 10 1011.6
20260506121641 -3 201 4.8 4.8 0.00 0.00 0.00 10 1011.5
20260506121137 -3 233 4.8 8.0 0.00 0.00 0.00 10 1011.6
20260506120635 -3 262 6.4 8.0 0.00 0.00 0.00 10 1011.7
20260506120132 -3 245 4.8 4.8 0.00 0.00 0.00 10 1011.9
20260506115631 -3 258 6.4 8.0 0.00 0.00 0.00 10 1011.7
20260506115129 -3 264 6.4 9.7 0.00 0.00 0.00 10 1011.6
20260506114626 -3 191 1.6 3.2 0.00 0.00 0.00 10 1011.8
20260506114124 -3 174 3.2 3.2 0.00 0.00 0.00 10 1012.1
20260506113622 -3 246 6.4 9.7 0.00 0.00 0.00 10 1012.1
20260506113119 -3 330 3.2 8.0 0.00 0.00 0.00 10 1011.9
20260506112615 -3 186 4.8 4.8 0.00 0.00 0.00 10 1012.2
20260506112113 -3 239 4.8 4.8 0.00 0.00 0.00 10 1012.1
20260506111610 -3 198 3.2 3.2 0.00 0.00 0.00 10 1012.2
20260506111108 -3 178 4.8 4.8 0.00 0.00 0.00 10 1012.2
20260506110605 -3 177 4.8 4.8 0.00 0.00 0.00 10 1012.3
20260506105558 -3 179 3.2 3.2 0.00 0.00 0.00 10 1012.4
20260506105055 -3 200 4.8 4.8 0.00 0.00 0.00 10 1012.5
20260506104553 -3 188 4.8 4.8 0.00 0.00 0.00 10 1012.3
20260506104051 -2 208 4.8 4.8 0.00 0.00 0.00 10 1012.5
20260506103548 -2 183 1.6 1.6 0.00 0.00 0.00 10 1012.4
20260506103044 -2 175 1.6 1.6 0.00 0.00 0.00 10 1012.5
20260506102543 -2 193 1.6 3.2 0.00 0.00 0.00 10 1012.5
20260506102040 -2 173 1.6 1.6 0.00 0.00 0.00 10 1012.6
20260506101537 -2 173 0.0 0.0 0.00 0.00 0.00 10 1012.7
20260506101034 -2 176 0.0 0.0 0.00 0.00 0.00 10 1012.4
20260506100532 -2 172 0.0 0.0 0.00 0.00 0.00 10 1013.0
20260506100030 -2 152 0.0 0.0 0.00 0.00 0.00 10 1012.7
20260506095528 -2 156 0.0 0.0 0.00 0.00 0.00 10 1012.8
20260506095024 -2 176 3.2 3.2 0.00 0.00 0.00 10 1013.0
20260506094522 -2 145 1.6 1.6 0.00 0.00 0.00 10 1013.0
20260506094020 -2 148 1.6 1.6 0.00 0.00 0.00 10 1013.0
20260506093518 -2 172 0.0 0.0 0.00 0.00 0.00 10 1013.2
20260506093015 -1 165 3.2 3.2 0.00 0.00 0.00 10 1013.2
20260506092513 -1 147 1.6 3.2 0.00 0.00 0.00 10 1013.2
20260506092009 -1 164 1.6 1.6 0.00 0.00 0.00 10 1013.3
20260506091508 -1 167 1.6 1.6 0.00 0.00 0.00 10 1013.6
20260506091005 -1 157 0.0 0.0 0.00 0.00 0.00 10 1013.6
20260506090503 0 144 3.2 3.2 0.00 0.00 0.00 10 1013.6
20260506085958 0 166 0.0 0.0 0.00 0.00 0.00 10 1013.4
20260506085455 0 132 1.6 3.2 0.00 0.00 0.00 10 1013.4
20260506084951 0 147 1.6 3.2 0.00 0.00 0.00 10 1013.4
20260506084449 0 149 1.6 1.6 0.00 0.00 0.00 10 1013.5
20260506083945 0 129 1.6 3.2 0.00 0.00 0.00 10 1013.7
20260506083442 0 156 0.0 0.0 0.00 0.00 0.00 10 1013.7
20260506082939 0 160 0.0 0.0 0.00 0.00 0.00 10 1013.6
20260506082436 0 165 0.0 0.0 0.00 0.00 0.00 10 1013.9
20260506081932 0 172 0.0 0.0 0.00 0.00 0.00 10 1013.7
20260506081431 0 163 1.6 1.6 0.00 0.00 0.00 10 1014.0
20260506080927 1 158 1.6 1.6 0.00 0.00 0.00 10 1014.0
20260506080424 1 154 1.6 1.6 0.00 0.00 0.00 10 1014.0
20260506073408 1 93 3.2 4.8 0.00 0.00 0.00 10 1014.4
20260506072906 1 148 4.8 4.8 0.00 0.00 0.00 10 1014.4
20260506072403 2 165 1.6 3.2 0.00 0.00 0.00 10 1014.3
20260506071900 2 155 8.0 9.7 0.00 0.00 0.00 10 1014.6
20260506071359 2 93 1.6 3.2 0.00 0.00 0.00 10 1014.8
20260506070855 2 147 1.6 1.6 0.00 0.00 0.00 10 1014.6
20260506070352 2 128 4.8 4.8 0.00 0.00 0.00 10 1014.5
20260506041323 3 101 3.2 3.2 0.00 0.00 0.00 10 1015.8
20260506040820 3 101 3.2 3.2 0.00 0.00 0.00 10 1015.8
20260506040318 3 42 3.2 3.2 0.00 0.00 0.00 10 1016.0
20260506035814 3 130 1.6 1.6 0.00 0.00 0.00 10 1016.2
20260506035311 3 89 3.2 3.2 0.00 0.00 0.00 10 1016.0
20260506034808 3 132 0.0 1.6 0.00 0.00 0.00 10 1015.9
20260506034305 4 98 4.8 4.8 0.00 0.00 0.00 10 1016.3
20260506033802 4 130 0.0 1.6 0.00 0.00 0.00 10 1016.0
20260506033259 5 119 1.6 1.6 0.00 0.00 0.00 10 1016.1
20260506032756 5 92 3.2 4.8 0.00 0.00 0.00 10 1016.2
20260506032253 5 85 3.2 4.8 0.00 0.00 0.00 10 1016.0
20260506031749 5 86 3.2 3.2 0.00 0.00 0.00 10 1016.0
20260506031247 6 151 1.6 1.6 0.00 0.00 0.00 10 1015.9
20260506030745 6 153 1.6 1.6 0.00 0.00 0.00 10 1016.0
20260506030243 6 132 3.2 4.8 0.00 0.00 0.00 10 1016.2